EZS58KB LSGG-GMMX

Flight info

Callsign EZS58KB
Flight time 3h 2m
Altitude 35000
Route BALSI DCT RETNO DCT TUPOX DCT MTG DCT DIVKO DCT NILDU DCT NENDA DCT BCN M985 VLC N860 BERUM UG850 FES UM372 ABDOR H400 KUDAX
Aircraft A320/M-SDE3FGHIRWY/LB1

Departure

Time 2026-05-08 08:31
Airport Geneva International Airport (LSGG)

Arrival

Time 2026-05-08 11:34
Airport Marrakesh Menara Airport (GMMX)
Time Latitude Longitude Altitude Speed Heading
2026-05-08 08:13 46.23009 6.10341 1401 ft 0 kts 90°
2026-05-08 08:26 46.22988 6.10381 1398 ft 6 kts 165°
2026-05-08 08:27 46.22957 6.10334 1393 ft 9 kts 257°
2026-05-08 08:27 46.23008 6.10227 1394 ft 15 kts 315°
2026-05-08 08:27 46.23046 6.10117 1394 ft 12 kts 244°
2026-05-08 08:27 46.22971 6.10004 1399 ft 17 kts 225°
2026-05-08 08:28 46.22897 6.09893 1399 ft 14 kts 226°
2026-05-08 08:28 46.22833 6.09801 1395 ft 12 kts 225°
2026-05-08 08:28 46.22780 6.09722 1395 ft 10 kts 225°
2026-05-08 08:28 46.22731 6.09649 1398 ft 12 kts 225°
2026-05-08 08:29 46.22664 6.09553 1400 ft 14 kts 225°
2026-05-08 08:29 46.22596 6.09452 1397 ft 16 kts 228°
2026-05-08 08:29 46.22553 6.09315 1403 ft 12 kts 261°
2026-05-08 08:29 46.22551 6.09244 1412 ft 5 kts 271°
2026-05-08 08:30 46.22558 6.09201 1412 ft 2 kts 290°
2026-05-08 08:30 46.22582 6.09166 1415 ft 9 kts 330°
2026-05-08 08:30 46.23036 6.09765 1411 ft 104 kts 45°
2026-05-08 08:31 46.23677 6.10704 1382 ft 157 kts 45°
2026-05-08 08:31 46.24502 6.11929 1714 ft 171 kts 45°
2026-05-08 08:31 46.25319 6.13175 2426 ft 172 kts 47°
2026-05-08 08:31 46.26201 6.14484 2733 ft 190 kts 45°
2026-05-08 08:32 46.27173 6.15905 3021 ft 208 kts 45°
2026-05-08 08:32 46.28248 6.17477 3288 ft 230 kts 45°
2026-05-08 08:32 46.29431 6.19206 3613 ft 253 kts 45°
2026-05-08 08:32 46.30697 6.21055 4250 ft 262 kts 45°
2026-05-08 08:33 46.31989 6.22943 5012 ft 267 kts 45°
2026-05-08 08:33 46.33216 6.24982 5728 ft 272 kts 59°
2026-05-08 08:33 46.33872 6.27552 6446 ft 276 kts 84°
2026-05-08 08:33 46.33739 6.30309 7128 ft 277 kts 109°
2026-05-08 08:34 46.32804 6.32729 7844 ft 278 kts 134°
2026-05-08 08:34 46.31271 6.34399 8583 ft 277 kts 157°
2026-05-08 08:34 46.29410 6.35038 9339 ft 277 kts 181°
2026-05-08 08:34 46.27523 6.34527 10091 ft 278 kts 202°
2026-05-08 08:35 46.25689 6.33431 10460 ft 295 kts 200°
2026-05-08 08:35 46.23677 6.32412 10603 ft 318 kts 198°
2026-05-08 08:35 46.21495 6.31402 10739 ft 339 kts 198°
2026-05-08 08:35 46.19204 6.30364 11204 ft 348 kts 198°
2026-05-08 08:36 46.16890 6.29299 11801 ft 352 kts 198°
2026-05-08 08:36 46.14544 6.28195 12433 ft 356 kts 199°
2026-05-08 08:36 46.12179 6.27061 13056 ft 359 kts 199°
2026-05-08 08:36 46.09802 6.25904 13674 ft 363 kts 199°
2026-05-08 08:37 46.07395 6.24727 14212 ft 366 kts 199°
2026-05-08 08:37 46.05002 6.23559 14743 ft 369 kts 199°
2026-05-08 08:37 46.02562 6.22371 15274 ft 372 kts 200°
2026-05-08 08:37 46.00099 6.21177 15816 ft 376 kts 200°
2026-05-08 08:38 45.97608 6.19974 16342 ft 379 kts 199°
2026-05-08 08:38 45.95090 6.18760 16872 ft 382 kts 200°
2026-05-08 08:38 45.92560 6.17541 17407 ft 386 kts 200°
2026-05-08 08:38 45.90004 6.16308 17939 ft 389 kts 200°
2026-05-08 08:39 45.87425 6.15065 18454 ft 392 kts 200°
2026-05-08 08:39 45.84825 6.13813 18912 ft 395 kts 200°
2026-05-08 08:39 45.82207 6.12556 19359 ft 398 kts 200°
2026-05-08 08:39 45.79579 6.11292 19761 ft 400 kts 200°
2026-05-08 08:40 45.76928 6.10020 20203 ft 402 kts 200°
2026-05-08 08:40 45.74268 6.08745 20643 ft 405 kts 200°
2026-05-08 08:40 45.71586 6.07458 21063 ft 407 kts 200°
2026-05-08 08:40 45.68888 6.06166 21484 ft 410 kts 200°
2026-05-08 08:41 45.66174 6.04867 21884 ft 412 kts 200°
2026-05-08 08:41 45.63450 6.03566 22291 ft 414 kts 200°
2026-05-08 08:41 45.60704 6.02254 22688 ft 417 kts 200°
2026-05-08 08:41 45.57950 6.00932 23053 ft 419 kts 200°
2026-05-08 08:42 45.55173 5.99600 23415 ft 422 kts 200°
2026-05-08 08:42 45.52383 5.98272 23756 ft 424 kts 200°
2026-05-08 08:42 45.49576 5.96943 24068 ft 425 kts 200°
2026-05-08 08:42 45.46723 5.95751 24412 ft 427 kts 194°
2026-05-08 08:43 45.43830 5.94852 24753 ft 427 kts 194°
2026-05-08 08:43 45.40922 5.93949 25067 ft 427 kts 194°
2026-05-08 08:43 45.38012 5.93044 25383 ft 428 kts 194°
2026-05-08 08:43 45.35105 5.92139 25702 ft 428 kts 194°
2026-05-08 08:44 45.32229 5.91239 25997 ft 429 kts 194°
2026-05-08 08:44 45.29273 5.90311 26300 ft 429 kts 194°
2026-05-08 08:44 45.26365 5.89398 26591 ft 430 kts 194°
2026-05-08 08:44 45.23479 5.88496 26879 ft 430 kts 194°
2026-05-08 08:45 45.20548 5.87585 27145 ft 431 kts 194°
2026-05-08 08:45 45.17609 5.86681 27403 ft 432 kts 194°
2026-05-08 08:45 45.14663 5.85778 27658 ft 433 kts 194°
2026-05-08 08:45 45.11719 5.84872 27914 ft 434 kts 194°
2026-05-08 08:46 45.08765 5.83958 28160 ft 434 kts 194°
2026-05-08 08:46 45.05812 5.83041 28370 ft 435 kts 194°
2026-05-08 08:46 45.02853 5.82126 28641 ft 434 kts 194°
2026-05-08 08:46 44.99899 5.81212 28972 ft 433 kts 194°
2026-05-08 08:47 44.96950 5.80302 29309 ft 432 kts 194°
2026-05-08 08:47 44.94025 5.79404 29627 ft 430 kts 194°
2026-05-08 08:47 44.91104 5.78509 29954 ft 428 kts 194°
2026-05-08 08:47 44.88194 5.77615 30246 ft 427 kts 194°
2026-05-08 08:48 44.85299 5.76722 30495 ft 426 kts 195°
2026-05-08 08:48 44.82398 5.75827 30672 ft 427 kts 195°
2026-05-08 08:48 44.79490 5.74935 30870 ft 428 kts 195°
2026-05-08 08:48 44.76585 5.74048 31062 ft 428 kts 195°
2026-05-08 08:49 44.73703 5.73168 31284 ft 428 kts 195°
2026-05-08 08:49 44.70754 5.72271 31482 ft 429 kts 195°
2026-05-08 08:49 44.67871 5.71396 31691 ft 429 kts 195°
2026-05-08 08:49 44.64908 5.70499 31916 ft 430 kts 195°
2026-05-08 08:50 44.61987 5.69611 32121 ft 430 kts 195°
2026-05-08 08:50 44.60043 5.69019 32254 ft 431 kts 195°
2026-05-08 08:50 44.57115 5.68126 32460 ft 431 kts 195°
2026-05-08 08:50 44.54176 5.67236 32672 ft 432 kts 196°
2026-05-08 08:51 44.51241 5.66348 32852 ft 432 kts 196°
2026-05-08 08:51 44.48302 5.65461 33041 ft 433 kts 196°
2026-05-08 08:51 44.45352 5.64573 33214 ft 434 kts 197°
2026-05-08 08:51 44.42395 5.63682 33375 ft 435 kts 197°
2026-05-08 08:52 44.39440 5.62787 33544 ft 435 kts 197°
2026-05-08 08:52 44.36555 5.61570 33729 ft 431 kts 206°
2026-05-08 08:52 44.33767 5.60027 33923 ft 431 kts 206°
2026-05-08 08:52 44.30978 5.58485 34102 ft 431 kts 206°
2026-05-08 08:53 44.28190 5.56952 34239 ft 431 kts 206°
2026-05-08 08:53 44.25391 5.55422 34383 ft 432 kts 206°
2026-05-08 08:53 44.22594 5.53898 34541 ft 432 kts 206°
2026-05-08 08:53 44.19787 5.52373 34706 ft 432 kts 206°
2026-05-08 08:54 44.16980 5.50850 34851 ft 433 kts 206°
2026-05-08 08:54 44.14169 5.49324 34995 ft 433 kts 206°
2026-05-08 08:54 44.08549 5.46256 35027 ft 434 kts 206°
2026-05-08 08:55 44.02945 5.43212 35039 ft 435 kts 206°
2026-05-08 08:55 43.97309 5.40162 35043 ft 435 kts 206°
2026-05-08 08:56 43.91671 5.37107 35041 ft 435 kts 206°
2026-05-08 08:56 43.86028 5.34056 35019 ft 435 kts 207°
2026-05-08 08:57 43.80387 5.31019 35022 ft 435 kts 207°
2026-05-08 08:57 43.74752 5.27990 35021 ft 435 kts 207°
2026-05-08 08:58 43.69111 5.24952 34993 ft 434 kts 208°
2026-05-08 08:58 43.63477 5.21932 35012 ft 434 kts 208°
2026-05-08 08:59 43.57843 5.18917 35020 ft 434 kts 208°
2026-05-08 08:59 43.52202 5.15910 35035 ft 434 kts 208°
2026-05-08 09:00 43.46573 5.12917 35034 ft 433 kts 209°
2026-05-08 09:00 43.40936 5.09919 35037 ft 433 kts 209°
2026-05-08 09:01 43.35775 5.05996 35041 ft 419 kts 221°
2026-05-08 09:01 43.30975 5.01439 35016 ft 419 kts 222°
2026-05-08 09:02 43.26202 4.96955 35034 ft 417 kts 222°
2026-05-08 09:02 43.21410 4.92470 35047 ft 416 kts 222°
2026-05-08 09:03 43.16630 4.87999 35047 ft 416 kts 222°
2026-05-08 09:03 43.11852 4.83516 35031 ft 416 kts 222°
2026-05-08 09:04 43.07082 4.79059 35049 ft 415 kts 222°
2026-05-08 09:04 43.02681 4.74137 35053 ft 407 kts 229°
2026-05-08 09:05 42.98446 4.69003 35058 ft 407 kts 229°
2026-05-08 09:05 42.94196 4.63872 35059 ft 407 kts 228°
2026-05-08 09:06 42.89955 4.58758 35047 ft 406 kts 228°
2026-05-08 09:06 42.85710 4.53654 35036 ft 406 kts 227°
2026-05-08 09:07 42.81465 4.48560 35042 ft 406 kts 227°
2026-05-08 09:07 42.77222 4.43468 35043 ft 407 kts 227°
2026-05-08 09:08 42.72999 4.38413 35048 ft 407 kts 227°
2026-05-08 09:08 42.68739 4.33337 35049 ft 407 kts 227°
2026-05-08 09:09 42.64475 4.28265 35053 ft 407 kts 227°
2026-05-08 09:09 42.60222 4.23193 35056 ft 407 kts 227°
2026-05-08 09:10 42.55966 4.18142 35042 ft 407 kts 227°
2026-05-08 09:10 42.51693 4.13088 35025 ft 407 kts 226°
2026-05-08 09:11 42.47426 4.08042 35035 ft 407 kts 226°
2026-05-08 09:11 42.43163 4.02997 35039 ft 406 kts 226°
2026-05-08 09:12 42.38900 3.97968 35035 ft 407 kts 226°
2026-05-08 09:12 42.34628 3.92951 35033 ft 407 kts 226°
2026-05-08 09:13 42.30346 3.87936 35023 ft 406 kts 226°
2026-05-08 09:13 42.26156 3.82836 35033 ft 402 kts 232°
2026-05-08 09:14 42.22883 3.76870 35028 ft 398 kts 238°
2026-05-08 09:14 42.19660 3.70751 35029 ft 398 kts 237°
2026-05-08 09:15 42.16468 3.64706 35032 ft 398 kts 237°
2026-05-08 09:15 42.13256 3.58632 35018 ft 398 kts 237°
2026-05-08 09:16 42.10036 3.52562 35030 ft 398 kts 237°
2026-05-08 09:16 42.06818 3.46505 35028 ft 398 kts 237°
2026-05-08 09:17 42.03597 3.40447 35028 ft 398 kts 237°
2026-05-08 09:17 42.00366 3.34379 35027 ft 398 kts 237°
2026-05-08 09:18 41.97135 3.28340 35027 ft 398 kts 237°
2026-05-08 09:18 41.93912 3.22313 35018 ft 397 kts 237°
2026-05-08 09:19 41.90705 3.16330 35022 ft 397 kts 237°
2026-05-08 09:19 41.87460 3.10290 35019 ft 396 kts 237°
2026-05-08 09:20 41.84245 3.04330 35021 ft 396 kts 236°
2026-05-08 09:20 41.81006 2.98336 35015 ft 397 kts 236°
2026-05-08 09:21 41.77772 2.92344 35019 ft 397 kts 236°
2026-05-08 09:23 41.66365 2.71426 35019 ft 398 kts 234°
2026-05-08 09:23 41.62948 2.65593 35018 ft 398 kts 233°
2026-05-08 09:24 41.59513 2.59779 35024 ft 399 kts 233°
2026-05-08 09:24 41.56094 2.53942 35023 ft 399 kts 233°
2026-05-08 09:25 41.52681 2.48090 35002 ft 399 kts 233°
2026-05-08 09:25 41.49253 2.42239 35018 ft 399 kts 233°
2026-05-08 09:26 41.45841 2.36435 35032 ft 399 kts 233°
2026-05-08 09:26 41.42415 2.30607 35043 ft 399 kts 233°
2026-05-08 09:27 41.38984 2.24783 35054 ft 400 kts 233°
2026-05-08 09:27 41.35544 2.18957 35056 ft 400 kts 233°
2026-05-08 09:28 41.32097 2.13132 35043 ft 401 kts 232°
2026-05-08 09:28 41.28577 2.07393 35059 ft 400 kts 230°
2026-05-08 09:29 41.24840 2.01897 35063 ft 400 kts 229°
2026-05-08 09:29 41.21062 1.96470 35063 ft 400 kts 229°
2026-05-08 09:30 41.17327 1.91002 35058 ft 400 kts 229°
2026-05-08 09:30 41.13613 1.85500 35055 ft 400 kts 229°
2026-05-08 09:31 41.10525 1.80937 35046 ft 400 kts 229°
2026-05-08 09:31 41.06797 1.75467 35051 ft 400 kts 229°
2026-05-08 09:32 41.03058 1.70001 35051 ft 400 kts 229°
2026-05-08 09:32 40.99331 1.64530 35049 ft 400 kts 229°
2026-05-08 09:33 40.95597 1.59074 35048 ft 400 kts 228°
2026-05-08 09:33 40.91860 1.53624 35048 ft 400 kts 229°
2026-05-08 09:34 40.88119 1.48171 35052 ft 400 kts 227°
2026-05-08 09:34 40.84386 1.42735 35054 ft 399 kts 227°
2026-05-08 09:35 40.80650 1.37307 35054 ft 399 kts 227°
2026-05-08 09:35 40.76919 1.31907 35053 ft 398 kts 227°
2026-05-08 09:36 40.73171 1.26510 35054 ft 398 kts 227°
2026-05-08 09:36 40.69433 1.21119 35052 ft 398 kts 227°
2026-05-08 09:37 40.65698 1.15729 35048 ft 398 kts 227°
2026-05-08 09:37 40.61958 1.10344 35058 ft 399 kts 227°
2026-05-08 09:38 40.58236 1.04992 35051 ft 399 kts 227°
2026-05-08 09:38 40.54459 0.99567 35034 ft 399 kts 227°
2026-05-08 09:39 40.50722 0.94215 35038 ft 400 kts 227°
2026-05-08 09:39 40.46953 0.88841 35021 ft 400 kts 227°
2026-05-08 09:40 40.43183 0.83478 35040 ft 400 kts 227°
2026-05-08 09:40 40.39415 0.78117 35044 ft 399 kts 227°
2026-05-08 09:41 40.35644 0.72764 35050 ft 400 kts 226°
2026-05-08 09:41 40.31863 0.67413 35053 ft 400 kts 226°
2026-05-08 09:42 40.28089 0.62067 35054 ft 400 kts 226°
2026-05-08 09:42 40.24303 0.56725 35028 ft 400 kts 226°
2026-05-08 09:43 40.20505 0.51387 35036 ft 400 kts 226°
2026-05-08 09:43 40.16749 0.46103 35043 ft 400 kts 226°
2026-05-08 09:44 40.12957 0.40775 35034 ft 400 kts 226°
2026-05-08 09:44 40.09161 0.35457 35063 ft 400 kts 226°
2026-05-08 09:45 40.05362 0.30140 35032 ft 401 kts 226°
2026-05-08 09:45 40.01559 0.24832 35032 ft 400 kts 226°
2026-05-08 09:46 39.97766 0.19542 35037 ft 399 kts 226°
2026-05-08 09:46 39.93983 0.14260 35032 ft 398 kts 226°
2026-05-08 09:47 39.90200 0.08988 35031 ft 397 kts 226°
2026-05-08 09:47 39.86419 0.03743 35028 ft 397 kts 226°
2026-05-08 09:48 39.82638 -0.01486 35048 ft 397 kts 225°
2026-05-08 09:48 39.78857 -0.06708 35029 ft 396 kts 225°
2026-05-08 09:49 39.75090 -0.11923 35030 ft 395 kts 225°
2026-05-08 09:49 39.71320 -0.17125 35030 ft 395 kts 225°
2026-05-08 09:50 39.67545 -0.22314 35033 ft 395 kts 225°
2026-05-08 09:50 39.63774 -0.27490 35033 ft 395 kts 225°
2026-05-08 09:51 39.60005 -0.32666 35032 ft 394 kts 225°
2026-05-08 09:51 39.56238 -0.37829 35028 ft 394 kts 225°
2026-05-08 09:52 39.52487 -0.42951 35033 ft 393 kts 225°
2026-05-08 09:52 39.48585 -0.47963 35030 ft 392 kts 217°
2026-05-08 09:53 39.43925 -0.51536 35029 ft 392 kts 209°
2026-05-08 09:53 39.39117 -0.54873 35022 ft 392 kts 209°
2026-05-08 09:54 39.34312 -0.58219 34963 ft 392 kts 210°
2026-05-08 09:54 39.29492 -0.61579 34972 ft 392 kts 210°
2026-05-08 09:55 39.24694 -0.64907 34975 ft 391 kts 210°
2026-05-08 09:55 39.19898 -0.68220 34982 ft 391 kts 210°
2026-05-08 09:56 39.15090 -0.71544 34979 ft 391 kts 210°
2026-05-08 09:56 39.10296 -0.74854 34968 ft 391 kts 210°
2026-05-08 09:57 39.03136 -0.79788 35001 ft 391 kts 210°
2026-05-08 09:57 38.98342 -0.83095 35001 ft 391 kts 210°
2026-05-08 09:58 38.93556 -0.86388 34997 ft 391 kts 210°
2026-05-08 09:58 38.88748 -0.89679 34974 ft 391 kts 210°
2026-05-08 09:59 38.83944 -0.92963 34988 ft 391 kts 210°
2026-05-08 09:59 38.79137 -0.96249 34994 ft 391 kts 210°
2026-05-08 10:00 38.74325 -0.99533 35001 ft 391 kts 210°
2026-05-08 10:00 38.69511 -1.02801 35003 ft 391 kts 210°
2026-05-08 10:01 38.64700 -1.06069 34994 ft 391 kts 210°
2026-05-08 10:01 38.59889 -1.09339 34999 ft 392 kts 210°
2026-05-08 10:02 38.55073 -1.12605 34999 ft 392 kts 210°
2026-05-08 10:02 38.50280 -1.15853 35029 ft 392 kts 210°
2026-05-08 10:03 38.45453 -1.19119 35019 ft 393 kts 210°
2026-05-08 10:03 38.40613 -1.22387 35017 ft 393 kts 210°
2026-05-08 10:04 38.35774 -1.25654 35013 ft 393 kts 210°
2026-05-08 10:04 38.30935 -1.28909 35014 ft 394 kts 210°
2026-05-08 10:05 38.26090 -1.32162 35016 ft 394 kts 210°
2026-05-08 10:05 38.21240 -1.35422 35015 ft 394 kts 210°
2026-05-08 10:06 38.16401 -1.38665 34991 ft 394 kts 211°
2026-05-08 10:06 38.11541 -1.41913 35000 ft 394 kts 211°
2026-05-08 10:07 38.06722 -1.45127 35007 ft 394 kts 211°
2026-05-08 10:07 38.01833 -1.48373 35009 ft 394 kts 211°
2026-05-08 10:08 37.97020 -1.51576 35016 ft 394 kts 211°
2026-05-08 10:08 37.92168 -1.54805 35029 ft 393 kts 211°
2026-05-08 10:09 37.87315 -1.58015 35029 ft 393 kts 211°
2026-05-08 10:09 37.82447 -1.61180 35027 ft 393 kts 210°
2026-05-08 10:10 37.77570 -1.64341 35026 ft 393 kts 210°
2026-05-08 10:10 37.72698 -1.67497 35025 ft 393 kts 210°
2026-05-08 10:11 37.67828 -1.70646 35004 ft 393 kts 211°
2026-05-08 10:11 37.62985 -1.73772 35006 ft 392 kts 211°
2026-05-08 10:12 37.58923 -1.76402 35014 ft 392 kts 211°
2026-05-08 10:12 37.53276 -1.80051 35020 ft 392 kts 211°
2026-05-08 10:13 37.49196 -1.82679 35030 ft 392 kts 211°
2026-05-08 10:13 37.44346 -1.85799 35011 ft 392 kts 211°
2026-05-08 10:14 37.39504 -1.88910 35027 ft 391 kts 211°
2026-05-08 10:14 37.34660 -1.92019 35052 ft 391 kts 211°
2026-05-08 10:15 37.29814 -1.95123 35044 ft 391 kts 211°
2026-05-08 10:15 37.24976 -1.98217 35037 ft 390 kts 211°
2026-05-08 10:16 37.20155 -2.01371 34997 ft 390 kts 213°
2026-05-08 10:16 37.15376 -2.04591 35015 ft 390 kts 213°
2026-05-08 10:17 37.10605 -2.07808 35020 ft 390 kts 213°
2026-05-08 10:17 37.05818 -2.11007 35020 ft 390 kts 212°
2026-05-08 10:18 37.01052 -2.14172 35016 ft 390 kts 212°
2026-05-08 10:18 36.96255 -2.17355 34986 ft 390 kts 213°
2026-05-08 10:19 36.91467 -2.20532 34998 ft 389 kts 213°
2026-05-08 10:20 36.84297 -2.25293 35005 ft 388 kts 214°
2026-05-08 10:20 36.80004 -2.29258 35016 ft 383 kts 222°
2026-05-08 10:21 36.75845 -2.33438 35009 ft 384 kts 222°
2026-05-08 10:21 36.71675 -2.37629 34982 ft 385 kts 223°
2026-05-08 10:22 36.67517 -2.41796 35008 ft 383 kts 223°
2026-05-08 10:22 36.63377 -2.45944 35022 ft 381 kts 223°
2026-05-08 10:23 36.59245 -2.50081 35028 ft 381 kts 223°
2026-05-08 10:23 36.55110 -2.54208 35034 ft 380 kts 222°
2026-05-08 10:24 36.50983 -2.58320 35031 ft 380 kts 223°
2026-05-08 10:24 36.46865 -2.62426 35006 ft 379 kts 223°
2026-05-08 10:25 36.42711 -2.66467 35025 ft 379 kts 222°
2026-05-08 10:25 36.38527 -2.70444 35042 ft 378 kts 222°
2026-05-08 10:26 36.34382 -2.74393 35034 ft 377 kts 222°
2026-05-08 10:26 36.30230 -2.78372 35027 ft 377 kts 222°
2026-05-08 10:27 36.26071 -2.82348 35023 ft 377 kts 222°
2026-05-08 10:27 36.21909 -2.86312 35031 ft 377 kts 222°
2026-05-08 10:28 36.17764 -2.90283 34994 ft 376 kts 222°
2026-05-08 10:28 36.13656 -2.94283 35009 ft 375 kts 222°
2026-05-08 10:29 36.09552 -2.98289 35008 ft 375 kts 222°
2026-05-08 10:29 36.05448 -3.02264 35004 ft 375 kts 222°
2026-05-08 10:30 36.01359 -3.06216 35042 ft 375 kts 223°
2026-05-08 10:30 35.97246 -3.10188 35025 ft 376 kts 223°
2026-05-08 10:31 35.93119 -3.14164 35016 ft 376 kts 223°
2026-05-08 10:31 35.88985 -3.18152 35007 ft 376 kts 223°
2026-05-08 10:32 35.84854 -3.22126 35006 ft 377 kts 223°
2026-05-08 10:32 35.80707 -3.26084 34998 ft 377 kts 222°
2026-05-08 10:33 35.76534 -3.30006 35001 ft 377 kts 222°
2026-05-08 10:33 35.72360 -3.33918 35002 ft 377 kts 222°
2026-05-08 10:34 35.68186 -3.37825 34972 ft 377 kts 222°
2026-05-08 10:34 35.64019 -3.41731 34993 ft 376 kts 222°
2026-05-08 10:35 35.59868 -3.45619 35018 ft 375 kts 223°
2026-05-08 10:35 35.55718 -3.49499 35013 ft 375 kts 223°
2026-05-08 10:36 35.51573 -3.53367 35009 ft 374 kts 223°
2026-05-08 10:36 35.47454 -3.57210 34998 ft 374 kts 223°
2026-05-08 10:37 35.43310 -3.61069 34965 ft 374 kts 223°
2026-05-08 10:37 35.39147 -3.64942 34974 ft 373 kts 223°
2026-05-08 10:38 35.35012 -3.68786 34978 ft 373 kts 223°
2026-05-08 10:38 35.30905 -3.72597 34986 ft 373 kts 223°
2026-05-08 10:39 35.26768 -3.76433 35001 ft 372 kts 223°
2026-05-08 10:39 35.22634 -3.80255 34995 ft 372 kts 223°
2026-05-08 10:40 35.18504 -3.84065 34950 ft 371 kts 224°
2026-05-08 10:40 35.14437 -3.87905 34961 ft 368 kts 224°
2026-05-08 10:41 35.10419 -3.91766 34971 ft 367 kts 224°
2026-05-08 10:41 35.06400 -3.95605 34972 ft 367 kts 224°
2026-05-08 10:42 35.02377 -3.99421 34973 ft 366 kts 224°
2026-05-08 10:42 34.98355 -4.03246 34972 ft 366 kts 224°
2026-05-08 10:43 34.94341 -4.07047 34963 ft 365 kts 224°
2026-05-08 10:43 34.90321 -4.10850 34928 ft 366 kts 224°
2026-05-08 10:44 34.86307 -4.14643 34931 ft 365 kts 224°
2026-05-08 10:44 34.82286 -4.18446 34935 ft 366 kts 224°
2026-05-08 10:45 34.78256 -4.22244 34938 ft 366 kts 224°
2026-05-08 10:45 34.74259 -4.26006 34931 ft 366 kts 224°
2026-05-08 10:46 34.70211 -4.29810 34935 ft 367 kts 224°
2026-05-08 10:46 34.66164 -4.33605 34956 ft 367 kts 224°
2026-05-08 10:47 34.62126 -4.37393 34928 ft 367 kts 224°
2026-05-08 10:47 34.58086 -4.41175 34932 ft 367 kts 224°
2026-05-08 10:48 34.54036 -4.44963 34927 ft 367 kts 224°
2026-05-08 10:48 34.49992 -4.48748 34926 ft 367 kts 224°
2026-05-08 10:49 34.45934 -4.52536 34935 ft 367 kts 224°
2026-05-08 10:49 34.41907 -4.56284 34941 ft 367 kts 224°
2026-05-08 10:50 34.37856 -4.60048 34913 ft 367 kts 224°
2026-05-08 10:50 34.33790 -4.63800 34919 ft 368 kts 223°
2026-05-08 10:51 34.29716 -4.67545 34927 ft 368 kts 223°
2026-05-08 10:51 34.25631 -4.71302 34934 ft 369 kts 223°
2026-05-08 10:52 34.21536 -4.75053 34939 ft 369 kts 223°
2026-05-08 10:52 34.17448 -4.78805 34948 ft 369 kts 223°
2026-05-08 10:53 34.13349 -4.82553 34959 ft 369 kts 223°
2026-05-08 10:53 34.09249 -4.86301 34935 ft 370 kts 223°
2026-05-08 10:54 34.05846 -4.89414 34944 ft 370 kts 223°
2026-05-08 10:54 34.01734 -4.93170 34952 ft 370 kts 223°
2026-05-08 10:55 33.97622 -4.96918 34971 ft 371 kts 223°
2026-05-08 10:55 33.93492 -5.00662 34974 ft 371 kts 223°
2026-05-08 10:56 33.89307 -5.04386 34974 ft 372 kts 222°
2026-05-08 10:56 33.85120 -5.07995 34976 ft 373 kts 222°
2026-05-08 10:57 33.80902 -5.11630 34947 ft 373 kts 221°
2026-05-08 10:57 33.74568 -5.17106 34945 ft 374 kts 221°
2026-05-08 10:58 33.70332 -5.20761 34944 ft 374 kts 221°
2026-05-08 10:58 33.66109 -5.24400 34949 ft 374 kts 221°
2026-05-08 10:59 33.61865 -5.28056 34951 ft 374 kts 221°
2026-05-08 10:59 33.57637 -5.31700 34950 ft 374 kts 221°
2026-05-08 11:00 33.53389 -5.35359 34950 ft 378 kts 221°
2026-05-08 11:00 33.49122 -5.39028 34952 ft 378 kts 221°
2026-05-08 11:01 33.44851 -5.42685 34952 ft 378 kts 221°
2026-05-08 11:01 33.40592 -5.46324 34951 ft 378 kts 221°
2026-05-08 11:02 33.34177 -5.51805 34944 ft 378 kts 221°
2026-05-08 11:03 33.29903 -5.55456 34942 ft 377 kts 221°
2026-05-08 11:03 33.25624 -5.59100 34942 ft 378 kts 221°
2026-05-08 11:04 33.21348 -5.62738 34946 ft 378 kts 221°
2026-05-08 11:04 33.17059 -5.66381 34938 ft 378 kts 221°
2026-05-08 11:05 33.12764 -5.70031 34945 ft 378 kts 221°
2026-05-08 11:05 33.08474 -5.73665 34981 ft 378 kts 221°
2026-05-08 11:06 33.04192 -5.77288 34977 ft 377 kts 221°
2026-05-08 11:06 32.99944 -5.80884 34925 ft 377 kts 221°
2026-05-08 11:07 32.95663 -5.84531 34927 ft 377 kts 224°
2026-05-08 11:07 32.93894 -5.86769 34928 ft 369 kts 237°
2026-05-08 11:07 32.92395 -5.89251 34931 ft 369 kts 237°
2026-05-08 11:08 32.89409 -5.94235 34931 ft 370 kts 237°
2026-05-08 11:08 32.86425 -5.99236 34933 ft 370 kts 237°
2026-05-08 11:09 32.83441 -6.04225 34935 ft 371 kts 237°
2026-05-08 11:09 32.81939 -6.06731 34766 ft 372 kts 237°
2026-05-08 11:09 32.80435 -6.09230 34548 ft 372 kts 237°
2026-05-08 11:09 32.78916 -6.11717 34317 ft 371 kts 236°
2026-05-08 11:10 32.77387 -6.14190 34082 ft 371 kts 236°
2026-05-08 11:10 32.75853 -6.16651 33831 ft 371 kts 236°
2026-05-08 11:10 32.74311 -6.19122 33565 ft 372 kts 236°
2026-05-08 11:10 32.72775 -6.21589 33273 ft 373 kts 236°
2026-05-08 11:11 32.71227 -6.24076 33007 ft 375 kts 236°
2026-05-08 11:11 32.69676 -6.26573 32747 ft 376 kts 236°
2026-05-08 11:11 32.68126 -6.29074 32492 ft 377 kts 236°
2026-05-08 11:11 32.66565 -6.31589 32240 ft 378 kts 236°
2026-05-08 11:12 32.65001 -6.34106 31988 ft 379 kts 236°
2026-05-08 11:12 32.63433 -6.36625 31739 ft 380 kts 236°
2026-05-08 11:12 32.61864 -6.39144 31488 ft 381 kts 236°
2026-05-08 11:12 32.60285 -6.41677 31239 ft 382 kts 236°
2026-05-08 11:13 32.58723 -6.44176 31004 ft 383 kts 236°
2026-05-08 11:13 32.57136 -6.46715 30780 ft 383 kts 236°
2026-05-08 11:13 32.55550 -6.49253 30541 ft 384 kts 236°
2026-05-08 11:13 32.53954 -6.51806 30303 ft 384 kts 236°
2026-05-08 11:14 32.52360 -6.54356 30069 ft 385 kts 236°
2026-05-08 11:14 32.50765 -6.56907 29804 ft 386 kts 236°
2026-05-08 11:14 32.49164 -6.59469 29524 ft 387 kts 236°
2026-05-08 11:14 32.47550 -6.62045 29248 ft 389 kts 235°
2026-05-08 11:15 32.45939 -6.64616 28986 ft 390 kts 235°
2026-05-08 11:15 32.44307 -6.67215 28718 ft 392 kts 235°
2026-05-08 11:15 32.42668 -6.69823 28406 ft 395 kts 235°
2026-05-08 11:15 32.41042 -6.72410 28146 ft 398 kts 235°
2026-05-08 11:16 32.39389 -6.75043 27882 ft 399 kts 235°
2026-05-08 11:16 32.37731 -6.77674 27623 ft 398 kts 235°
2026-05-08 11:16 32.36070 -6.80307 27366 ft 398 kts 235°
2026-05-08 11:16 32.34418 -6.82927 27113 ft 397 kts 235°
2026-05-08 11:17 32.32766 -6.85548 26881 ft 396 kts 235°
2026-05-08 11:17 32.31122 -6.88155 26629 ft 395 kts 235°
2026-05-08 11:17 32.29485 -6.90750 26385 ft 394 kts 235°
2026-05-08 11:17 32.27851 -6.93337 25815 ft 390 kts 234°
2026-05-08 11:18 32.26234 -6.95896 25105 ft 387 kts 234°
2026-05-08 11:18 32.24631 -6.98433 24404 ft 384 kts 234°
2026-05-08 11:18 32.23034 -7.00957 23707 ft 383 kts 234°
2026-05-08 11:18 32.21443 -7.03467 22956 ft 381 kts 234°
2026-05-08 11:19 32.19855 -7.05971 22303 ft 377 kts 234°
2026-05-08 11:19 32.18311 -7.08404 21683 ft 373 kts 234°
2026-05-08 11:19 32.16762 -7.10847 21084 ft 370 kts 234°
2026-05-08 11:19 32.15222 -7.13278 20492 ft 367 kts 234°
2026-05-08 11:20 32.13699 -7.15679 19929 ft 365 kts 233°
2026-05-08 11:20 32.12184 -7.18065 19404 ft 362 kts 233°
2026-05-08 11:20 32.10674 -7.20437 18877 ft 360 kts 233°
2026-05-08 11:20 32.09172 -7.22789 18401 ft 358 kts 233°
2026-05-08 11:21 32.07676 -7.25130 17850 ft 356 kts 233°
2026-05-08 11:21 32.06193 -7.27448 17360 ft 352 kts 233°
2026-05-08 11:21 32.04722 -7.29749 16879 ft 349 kts 233°
2026-05-08 11:21 32.03273 -7.32019 16392 ft 346 kts 233°
2026-05-08 11:22 32.01834 -7.34276 15906 ft 343 kts 233°
2026-05-08 11:22 32.00401 -7.36523 15407 ft 341 kts 233°
2026-05-08 11:22 31.98976 -7.38754 14902 ft 340 kts 233°
2026-05-08 11:22 31.97556 -7.40973 14380 ft 340 kts 233°
2026-05-08 11:23 31.96134 -7.43192 13857 ft 339 kts 233°
2026-05-08 11:23 31.94711 -7.45413 13270 ft 340 kts 233°
2026-05-08 11:23 31.93291 -7.47629 12717 ft 338 kts 233°
2026-05-08 11:23 31.91877 -7.49836 12157 ft 337 kts 232°
2026-05-08 11:24 31.90471 -7.52029 11578 ft 336 kts 232°
2026-05-08 11:24 31.89067 -7.54231 11028 ft 335 kts 233°
2026-05-08 11:24 31.87685 -7.56411 10757 ft 324 kts 233°
2026-05-08 11:24 31.86383 -7.58471 10639 ft 311 kts 233°
2026-05-08 11:25 31.85119 -7.60471 10523 ft 298 kts 233°
2026-05-08 11:25 31.83887 -7.62416 10384 ft 287 kts 232°
2026-05-08 11:25 31.82711 -7.64270 10163 ft 280 kts 232°
2026-05-08 11:25 31.81566 -7.66074 9936 ft 278 kts 232°
2026-05-08 11:26 31.80265 -7.67738 9794 ft 277 kts 220°
2026-05-08 11:26 31.78764 -7.69149 9665 ft 277 kts 218°
2026-05-08 11:26 31.77261 -7.70555 9532 ft 276 kts 218°
2026-05-08 11:26 31.75772 -7.71950 9223 ft 272 kts 218°
2026-05-08 11:27 31.74292 -7.73338 8840 ft 271 kts 218°
2026-05-08 11:27 31.72836 -7.74704 8455 ft 266 kts 218°
2026-05-08 11:27 31.71404 -7.76045 8078 ft 259 kts 218°
2026-05-08 11:27 31.70011 -7.77350 7704 ft 253 kts 218°
2026-05-08 11:28 31.68657 -7.78621 7348 ft 246 kts 218°
2026-05-08 11:28 31.67288 -7.79780 6998 ft 239 kts 206°
2026-05-08 11:28 31.65738 -7.80351 6646 ft 232 kts 187°
2026-05-08 11:28 31.64140 -7.80535 6287 ft 229 kts 186°
2026-05-08 11:29 31.62571 -7.80715 5902 ft 223 kts 186°
2026-05-08 11:29 31.61050 -7.80893 5565 ft 217 kts 186°
2026-05-08 11:29 31.59655 -7.81394 5224 ft 207 kts 220°
2026-05-08 11:29 31.58916 -7.82763 4933 ft 202 kts 262°
2026-05-08 11:30 31.59047 -7.84391 4630 ft 203 kts 281°
2026-05-08 11:30 31.59255 -7.86043 4332 ft 205 kts 276°
2026-05-08 11:30 31.59386 -7.87690 3990 ft 199 kts 275°
2026-05-08 11:30 31.59501 -7.89282 3680 ft 192 kts 275°
2026-05-08 11:31 31.59613 -7.90799 3399 ft 180 kts 276°
2026-05-08 11:31 31.59720 -7.92204 3139 ft 170 kts 276°
2026-05-08 11:31 31.59825 -7.93531 2934 ft 154 kts 276°
2026-05-08 11:31 31.59924 -7.94740 2739 ft 145 kts 276°
2026-05-08 11:32 31.60015 -7.95900 2551 ft 141 kts 276°
2026-05-08 11:32 31.60111 -7.97039 2357 ft 139 kts 276°
2026-05-08 11:32 31.60213 -7.98174 2154 ft 141 kts 277°
2026-05-08 11:32 31.60310 -7.99324 2013 ft 143 kts 277°
2026-05-08 11:33 31.60407 -8.00481 1842 ft 143 kts 278°
2026-05-08 11:33 31.60515 -8.01643 1650 ft 143 kts 278°
2026-05-08 11:33 31.60616 -8.02773 1551 ft 128 kts 276°
2026-05-08 11:33 31.60689 -8.03622 1535 ft 80 kts 276°
2026-05-08 11:34 31.60734 -8.04139 1533 ft 47 kts 276°
2026-05-08 11:34 31.60741 -8.04380 1531 ft 16 kts 231°
2026-05-08 11:34 31.60688 -8.04391 1533 ft 6 kts 190°
2026-05-08 11:34 31.60659 -8.04397 1542 ft 9 kts 190°
2026-05-08 11:35 31.60577 -8.04328 1548 ft 26 kts 98°
2026-05-08 11:35 31.60555 -8.04067 1542 ft 34 kts 95°
2026-05-08 11:35 31.60531 -8.03788 1548 ft 35 kts 95°
2026-05-08 11:35 31.60506 -8.03507 1548 ft 35 kts 96°
2026-05-08 11:36 31.60481 -8.03224 1549 ft 35 kts 96°
2026-05-08 11:36 31.60456 -8.02941 1549 ft 35 kts 96°
2026-05-08 11:36 31.60433 -8.02687 1549 ft 15 kts 103°
2026-05-08 11:36 31.60375 -8.02676 1549 ft 8 kts 185°
2026-05-08 11:37 31.60327 -8.02682 1549 ft 3 kts 186°
2026-05-08 11:37 31.60323 -8.02682 1549 ft 0 kts 185°
2026-05-08 11:37 31.60315 -8.02593 1549 ft 0 kts 185°
2026-05-08 11:37 31.60310 -8.02592 1549 ft 0 kts 176°
2026-05-08 11:38 31.60306 -8.02592 1549 ft 0 kts 184°